Location: Sternwarte ZA, Rosenfeld-Brittheim
(48.2889°N, 8.6789°E)
Time: 21:43:47
(UTC+02:00)

ISS - Pass Details

Date: 18 May 2021
Orbit: 417 x 422 km, 51.6° (Epoch: 15 June)

Event Time Altitude Azimuth Distance (km) Brightness Sun altitude
Rises 22:51:46 0° 260° (W) 2,361 0.4 -14.2°
Reaches altitude 10° 22:53:52 10° 264° (W) 1,500 -0.6 -14.4°
Maximum altitude 22:57:12 60° 345° (NNW) 486 -3.2 -14.7°
Drops below altitude 10° 23:00:34 10° 67° (ENE) 1,507 -1.1 -15.0°
Sets 23:02:41 0° 71° (ENE) 2,373 -0.1 -15.2°
